Location: *
(38.9555°S, 57.3572°E)
Time: 01:42:24
(UTC+00:00)

NOAA 6 - Pass Details

Date: 15 July 2020
Orbit: 771 x 788 km, 98.7° (Epoch: 06 August)

Event Time Altitude Azimuth Distance (km) Brightness Sun altitude
Rises 13:29:26 0° 160° (SSE) 3,312 6.9 -4.7°
Reaches altitude 10° 13:31:53 10° 153° (SSE) 2,377 6.1 -5.1°
Maximum altitude 13:36:54 44° 81° (E) 1,085 4.5 -6.0°
Drops below altitude 10° 13:41:52 10° 9° (N) 2,351 6.7 -6.9°
Sets 13:44:16 0° 2° (N) 3,272 7.5 -7.3°
